FW9742 Weather Reports


time (UTC)temp
C
wind
direction
speed
KPH
gust
KPH
rain 1hr
cm
rain 24hr
cm
rain mn
cm
humidity
%
barometer
mb
20260505035907 17 118 1.6 3.2 0.00 0.00 0.00 80 1013.3
20260505035403 17 175 1.6 3.2 0.00 0.00 0.00 80 1013.1
20260505034901 17 147 1.6 1.6 0.00 0.00 0.00 80 1013.1
20260505034357 17 146 1.6 1.6 0.00 0.00 0.00 80 1013.1
20260505033855 18 146 1.6 1.6 0.00 0.00 0.00 80 1013.0
20260505033351 18 146 1.6 1.6 0.00 0.00 0.00 78 1013.2
20260505032849 18 161 1.6 1.6 0.00 0.00 0.00 78 1013.1
20260505032345 18 174 1.6 3.2 0.00 0.00 0.00 78 1013.1
20260505031842 18 168 1.6 3.2 0.00 0.00 0.00 78 1013.2
20260505031339 18 153 1.6 3.2 0.00 0.00 0.00 77 1013.2
20260505030837 18 169 3.2 3.2 0.00 0.00 0.00 77 1012.9
20260505030332 18 170 3.2 3.2 0.00 0.00 0.00 76 1013.0
20260505025828 18 169 4.8 4.8 0.00 0.00 0.00 76 1012.8
20260505025326 18 166 3.2 3.2 0.00 0.00 0.00 76 1012.6
20260505024824 18 166 3.2 4.8 0.00 0.00 0.00 76 1012.7
20260505024322 18 170 4.8 4.8 0.00 0.00 0.00 76 1012.7
20260505023818 18 150 3.2 4.8 0.00 0.00 0.00 76 1013.0
20260505023315 18 167 3.2 4.8 0.00 0.00 0.00 75 1012.8
20260505022813 18 151 3.2 4.8 0.00 0.00 0.00 74 1012.6
20260505022310 18 191 4.8 8.0 0.00 0.00 0.00 74 1012.9
20260505021807 18 212 4.8 8.0 0.00 0.00 0.00 74 1013.0
20260505021303 18 181 3.2 4.8 0.00 0.00 0.00 74 1012.9
20260505020759 18 171 3.2 4.8 0.00 0.00 0.00 74 1012.8
20260505020254 19 183 4.8 4.8 0.00 0.00 0.00 74 1012.9
20260505015752 19 176 4.8 4.8 0.00 0.00 0.00 73 1012.7
20260505015249 19 173 1.6 3.2 0.00 0.00 0.00 73 1012.8
20260505014746 19 183 3.2 4.8 0.00 0.00 0.00 72 1012.5
20260505014243 19 173 3.2 4.8 0.00 0.00 0.00 72 1012.9
20260505013739 20 158 3.2 3.2 0.00 0.00 0.00 71 1012.6
20260505013237 20 183 1.6 8.0 0.00 0.00 0.00 71 1012.5
20260505012735 20 154 3.2 4.8 0.00 0.00 0.00 71 1012.3
20260505012232 20 162 4.8 4.8 0.00 0.00 0.00 69 1012.4
20260505011727 20 193 4.8 4.8 0.00 0.00 0.00 67 1012.4
20260505011225 20 180 4.8 4.8 0.00 0.00 0.00 67 1012.4
20260505010720 20 238 3.2 4.8 0.00 0.00 0.00 67 1012.5
20260505010217 20 220 4.8 4.8 0.00 0.00 0.00 67 1012.2
20260505005713 20 183 1.6 4.8 0.00 0.00 0.00 66 1012.4
20260505005211 21 170 4.8 4.8 0.00 0.00 0.00 65 1012.3
20260505004708 21 211 4.8 4.8 0.00 0.00 0.00 64 1012.5
20260505004204 21 174 4.8 8.0 0.00 0.00 0.00 63 1012.4
20260505003702 21 173 3.2 4.8 0.00 0.00 0.00 64 1013.0
20260505003159 21 201 1.6 3.2 0.00 0.00 0.00 63 1012.5
20260505002655 21 196 3.2 4.8 0.00 0.00 0.00 62 1012.5
20260505002153 21 197 4.8 4.8 0.00 0.00 0.00 61 1012.7
20260505001650 22 168 3.2 4.8 0.00 0.00 0.00 60 1012.5
20260505001148 22 178 3.2 3.2 0.00 0.00 0.00 59 1012.7
20260505000644 22 182 3.2 4.8 0.00 0.00 0.00 57 1012.8
20260505000142 22 219 4.8 4.8 0.00 0.00 0.00 56 1013.0
20260504235638 22 247 3.2 4.8 0.00 0.00 0.00 55 1012.9
20260504235135 23 171 6.4 8.0 0.00 0.00 0.00 54 1012.8
20260504234632 23 212 3.2 3.2 0.00 0.00 0.00 54 1012.7
20260504234130 23 188 3.2 3.2 0.00 0.00 0.00 53 1012.9
20260504233625 23 174 3.2 3.2 0.00 0.00 0.00 52 1012.6
20260504233121 23 145 3.2 4.8 0.00 0.00 0.00 51 1012.9
20260504232619 23 159 1.6 4.8 0.00 0.00 0.00 50 1012.9
20260504232116 23 222 4.8 4.8 0.00 0.00 0.00 48 1012.9
20260504231613 23 181 6.4 8.0 0.00 0.00 0.00 48 1012.9
20260504231109 23 180 4.8 8.0 0.00 0.00 0.00 48 1013.0
20260504230605 23 183 3.2 8.0 0.00 0.00 0.00 48 1012.9
20260504230104 24 216 4.8 4.8 0.00 0.00 0.00 48 1013.0
20260504225601 24 223 4.8 4.8 0.00 0.00 0.00 46 1013.1
20260504225058 24 157 3.2 4.8 0.00 0.00 0.00 47 1013.2
20260504224554 24 199 6.4 9.7 0.00 0.00 0.00 46 1013.2
20260504224052 24 349 1.6 8.0 0.00 0.00 0.00 46 1013.3
20260504223549 24 164 4.8 4.8 0.00 0.00 0.00 46 1013.0
20260504223044 25 246 4.8 8.0 0.00 0.00 0.00 44 1013.4
20260504222541 25 263 1.6 8.0 0.00 0.00 0.00 44 1013.2
20260504222039 25 270 3.2 4.8 0.00 0.00 0.00 45 1013.2
20260504221536 25 281 1.6 3.2 0.00 0.00 0.00 43 1013.5
20260504221032 25 254 1.6 3.2 0.00 0.00 0.00 46 1013.2
20260504220529 25 236 4.8 4.8 0.00 0.00 0.00 44 1013.4
20260504220026 25 169 4.8 4.8 0.00 0.00 0.00 43 1013.8
20260504215522 25 269 3.2 4.8 0.00 0.00 0.00 43 1013.6
20260504215020 24 191 3.2 4.8 0.00 0.00 0.00 44 1013.3
20260504214516 25 208 3.2 3.2 0.00 0.00 0.00 43 1013.6
20260504214012 25 188 3.2 8.0 0.00 0.00 0.00 43 1013.6
20260504213509 25 221 1.6 3.2 0.00 0.00 0.00 43 1013.5
20260504213006 25 308 1.6 3.2 0.00 0.00 0.00 45 1013.5
20260504212502 25 273 3.2 9.7 0.00 0.00 0.00 46 1013.6
20260504212000 26 257 4.8 4.8 0.00 0.00 0.00 45 1013.7
20260504211456 26 252 3.2 4.8 0.00 0.00 0.00 45 1013.6
20260504210953 25 183 1.6 3.2 0.00 0.00 0.00 45 1013.7
20260504210450 26 305 1.6 4.8 0.00 0.00 0.00 44 1014.0
20260504205947 26 222 3.2 4.8 0.00 0.00 0.00 46 1013.9
20260504205444 26 291 1.6 3.2 0.00 0.00 0.00 46 1013.8
20260504204943 26 258 3.2 8.0 0.00 0.00 0.00 46 1013.8
20260504204441 26 181 3.2 3.2 0.00 0.00 0.00 43 1013.8
20260504203940 26 264 1.6 8.0 0.00 0.00 0.00 44 1014.0
20260504203437 26 271 1.6 8.0 0.00 0.00 0.00 47 1014.1
20260504202933 26 198 1.6 4.8 0.00 0.00 0.00 45 1014.1
20260504202429 25 245 4.8 4.8 0.00 0.00 0.00 47 1014.2
20260504201926 26 143 3.2 4.8 0.00 0.00 0.00 45 1014.3
20260504201424 26 297 3.2 8.0 0.00 0.00 0.00 44 1014.2
20260504200921 26 275 4.8 4.8 0.00 0.00 0.00 44 1014.3
20260504200418 25 263 4.8 11.3 0.00 0.00 0.00 46 1014.4
20260504195915 25 289 4.8 8.0 0.00 0.00 0.00 47 1014.7
20260504195410 26 229 3.2 9.7 0.00 0.00 0.00 44 1014.9
20260504194907 26 285 1.6 4.8 0.00 0.00 0.00 47 1015.0
20260504194403 26 219 1.6 4.8 0.00 0.00 0.00 47 1014.9
20260504193859 25 205 3.2 4.8 0.00 0.00 0.00 46 1015.1
20260504193356 26 269 4.8 4.8 0.00 0.00 0.00 44 1015.3
20260504192855 26 272 6.4 9.7 0.00 0.00 0.00 45 1015.2
20260504192352 25 270 3.2 4.8 0.00 0.00 0.00 44 1015.4
20260504191850 26 177 4.8 8.0 0.00 0.00 0.00 45 1015.5
20260504191348 26 262 4.8 9.7 0.00 0.00 0.00 45 1015.4
20260504190843 26 324 1.6 4.8 0.00 0.00 0.00 46 1015.4
20260504190339 26 219 1.6 3.2 0.00 0.00 0.00 47 1015.5
20260504185836 25 302 1.6 3.2 0.00 0.00 0.00 48 1015.4
20260504185333 25 307 3.2 4.8 0.00 0.00 0.00 46 1015.5
20260504184829 25 300 3.2 4.8 0.00 0.00 0.00 47 1015.3
20260504184325 25 134 4.8 9.7 0.00 0.00 0.00 48 1015.8
20260504183821 25 318 1.6 4.8 0.00 0.00 0.00 45 1015.7
20260504183319 25 292 3.2 4.8 0.00 0.00 0.00 48 1015.8
20260504182816 26 313 1.6 8.0 0.00 0.00 0.00 47 1015.8
20260504182314 25 294 3.2 4.8 0.00 0.00 0.00 49 1015.9
20260504181810 25 10 0.0 3.2 0.00 0.00 0.00 50 1016.1
20260504181308 25 304 3.2 3.2 0.00 0.00 0.00 45 1016.2
20260504180807 25 272 6.4 11.3 0.00 0.00 0.00 47 1016.2
20260504180305 25 307 4.8 4.8 0.00 0.00 0.00 49 1016.3
20260504175803 25 304 3.2 4.8 0.00 0.00 0.00 47 1016.4
20260504175259 25 224 4.8 4.8 0.00 0.00 0.00 46 1016.4
20260504174757 25 293 3.2 4.8 0.00 0.00 0.00 47 1016.4
20260504174255 25 288 3.2 4.8 0.00 0.00 0.00 50 1016.4
20260504173751 25 141 4.8 4.8 0.00 0.00 0.00 46 1016.3
20260504173248 24 216 3.2 8.0 0.00 0.00 0.00 49 1016.4
20260504172745 24 106 4.8 9.7 0.00 0.00 0.00 50 1016.6
20260504172241 25 205 3.2 3.2 0.00 0.00 0.00 46 1016.7
20260504171737 25 308 3.2 4.8 0.00 0.00 0.00 45 1016.4
20260504171235 25 20 1.6 1.6 0.00 0.00 0.00 47 1016.4
20260504170732 25 305 3.2 3.2 0.00 0.00 0.00 48 1016.5
20260504170229 25 278 3.2 9.7 0.00 0.00 0.00 45 1016.5
20260504160147 24 164 4.8 8.0 0.00 0.00 0.00 47 1016.9
20260504151115 23 74 1.6 4.8 0.00 0.00 0.00 47 1017.1
20260504150612 23 289 3.2 4.8 0.00 0.00 0.00 55 1017.0
20260504150109 23 295 1.6 4.8 0.00 0.00 0.00 59 1017.0
20260504141038 21 317 1.6 1.6 0.00 0.00 0.00 67 1017.4
20260504140534 20 307 1.6 1.6 0.00 0.00 0.00 68 1017.2
20260504130459 18 41 1.6 1.6 0.00 0.00 0.00 80 1017.2
20260504110340 11 11 0.0 0.0 0.00 0.00 0.00 91 1016.3
20260504100258 11 12 0.0 0.0 0.00 0.00 0.00 90 1016.6
20260504081651 12 5 0.0 0.0 0.00 0.00 0.00 89 1016.7
20260504081147 12 5 0.0 0.0 0.00 0.00 0.00 88 1016.7
20260504080644 12 5 0.0 0.0 0.00 0.00 0.00 88 1016.8
20260504080140 12 5 0.0 0.0 0.00 0.00 0.00 88 1016.6
20260504070108 14 320 1.6 1.6 0.00 0.00 0.00 84 1017.1
20260504050456 16 320 0.0 0.0 0.00 0.00 0.00 77 1018.2
20260504045954 16 320 0.0 0.0 0.00 0.00 0.00 76 1018.1
20260504045449 16 320 0.0 1.6 0.00 0.00 0.00 75 1018.0
20260504044946 16 320 0.0 1.6 0.00 0.00 0.00 74 1018.2
20260504044443 16 320 1.6 1.6 0.00 0.00 0.00 73 1018.3
20260504043941 16 320 1.6 1.6 0.00 0.00 0.00 73 1018.4
20260504043437 16 320 0.0 1.6 0.00 0.00 0.00 73 1018.5
20260504042935 16 321 0.0 1.6 0.00 0.00 0.00 73 1018.0
20260504042431 17 320 0.0 1.6 0.00 0.00 0.00 72 1018.2
20260504041928 17 320 1.6 1.6 0.00 0.00 0.00 72 1018.3
20260504041424 17 321 0.0 1.6 0.00 0.00 0.00 71 1018.3
20260504040920 17 321 1.6 1.6 0.00 0.00 0.00 70 1018.3
20260504040418 17 321 0.0 1.6 0.00 0.00 0.00 70 1018.3